Time,TemperatureF,DewpointF,PressureIn,WindDirection,WindDirectionDegrees,WindSpeedMPH,WindSpeedGustMPH,Humidity,HourlyPrecipIn,Conditions,Clouds,dailyrainin,SoftwareType,DateUTC
2013-08-28 00:00:00,77.0,68.1,30.06,SW,228,2.6,6.5,74,0.00,,,0.00,VWS V14.01,2013-08-28 04:00:00,
2013-08-28 00:13:00,76.7,68.2,30.06,North,360,1.3,5.2,75,0.00,,,0.00,VWS V14.01,2013-08-28 04:13:00,
2013-08-28 00:28:00,75.5,68.2,30.06,NW,318,0.0,0.0,78,0.00,,,0.00,VWS V14.01,2013-08-28 04:28:00,
2013-08-28 00:43:00,73.6,67.4,30.06,NW,318,0.0,0.0,81,0.00,,,0.00,VWS V14.01,2013-08-28 04:43:00,
2013-08-28 00:58:00,72.5,66.7,30.05,NW,318,0.0,0.0,82,0.00,,,0.00,VWS V14.01,2013-08-28 04:58:00,
2013-08-28 01:13:00,71.6,66.2,30.05,NW,318,0.0,0.0,83,0.00,,CLR,0.00,VWS V14.01,2013-08-28 05:13:00,
2013-08-28 01:28:00,71.1,66.0,30.04,NW,318,0.0,1.3,84,0.00,,CLR,0.00,VWS V14.01,2013-08-28 05:28:00,
2013-08-28 01:43:00,71.0,66.3,30.04,NW,318,0.0,0.0,85,0.00,,CLR,0.00,VWS V14.01,2013-08-28 05:43:00,
2013-08-28 01:58:00,70.9,66.2,30.03,NW,318,0.0,0.0,85,0.00,,CLR,0.00,VWS V14.01,2013-08-28 05:58:00,
2013-08-28 02:13:00,70.9,66.5,30.02,NW,318,0.0,0.0,86,0.00,,CLR,0.00,VWS V14.01,2013-08-28 06:13:00,
2013-08-28 02:28:00,70.8,66.1,30.02,NW,318,0.0,0.0,85,0.00,,CLR,0.00,VWS V14.01,2013-08-28 06:28:00,
2013-08-28 02:43:00,70.8,66.1,30.02,NW,318,0.0,1.3,85,0.00,,CLR,0.00,VWS V14.01,2013-08-28 06:43:00,
2013-08-28 02:58:00,70.9,66.2,30.02,NW,318,0.0,0.0,85,0.00,,CLR,0.00,VWS V14.01,2013-08-28 06:58:00,
2013-08-28 03:13:00,70.7,66.0,30.02,NW,318,0.0,0.0,85,0.00,,CLR,0.00,VWS V14.01,2013-08-28 07:13:00,
2013-08-28 03:28:00,70.3,65.9,30.01,NW,318,0.0,0.0,86,0.00,,CLR,0.00,VWS V14.01,2013-08-28 07:28:00,
2013-08-28 03:43:00,69.9,65.5,30.01,NW,318,0.0,0.0,86,0.00,,CLR,0.00,VWS V14.01,2013-08-28 07:43:00,
2013-08-28 03:58:00,69.4,65.4,30.00,NW,318,0.0,0.0,87,0.00,,CLR,0.00,VWS V14.01,2013-08-28 07:58:00,
2013-08-28 04:13:00,69.0,65.0,30.00,NW,318,0.0,0.0,87,0.00,,CLR,0.00,VWS V14.01,2013-08-28 08:13:00,
2013-08-28 04:28:00,68.7,65.0,30.00,NW,318,0.0,0.0,88,0.00,,CLR,0.00,VWS V14.01,2013-08-28 08:28:00,
2013-08-28 04:43:00,68.5,65.1,30.00,NW,318,0.0,0.0,89,0.00,,CLR,0.00,VWS V14.01,2013-08-28 08:43:00,
2013-08-28 04:58:00,68.3,64.9,30.00,NW,318,0.0,1.3,89,0.00,,CLR,0.00,VWS V14.01,2013-08-28 08:58:00,
2013-08-28 05:13:00,68.1,64.7,30.00,NW,318,0.0,0.0,89,0.00,,,0.00,VWS V14.01,2013-08-28 09:13:00,
2013-08-28 05:28:00,68.3,64.9,30.01,NW,318,2.6,2.6,89,0.00,,,0.00,VWS V14.01,2013-08-28 09:28:00,
2013-08-28 05:43:00,69.2,65.2,30.01,NW,317,0.0,1.3,87,0.00,,,0.00,VWS V14.01,2013-08-28 09:43:00,
2013-08-28 05:58:00,69.8,65.8,30.01,NW,317,0.0,0.0,87,0.00,,,0.00,VWS V14.01,2013-08-28 09:58:00,
2013-08-28 06:13:00,70.3,65.9,30.01,NW,317,0.0,0.0,86,0.00,,,0.00,VWS V14.01,2013-08-28 10:13:00,
2013-08-28 06:28:00,70.7,66.0,30.01,NW,317,0.0,1.3,85,0.00,,,0.00,VWS V14.01,2013-08-28 10:28:00,
2013-08-28 06:43:00,71.0,66.3,30.02,NW,317,0.0,1.3,85,0.00,,,0.00,VWS V14.01,2013-08-28 10:43:00,
2013-08-28 06:58:00,71.4,66.3,30.02,NW,317,0.0,1.3,84,0.00,,,0.00,VWS V14.01,2013-08-28 10:58:00,
2013-08-28 07:13:00,71.4,66.7,30.02,NW,317,0.0,0.0,85,0.00,,,0.00,VWS V14.01,2013-08-28 11:13:00,
2013-08-28 07:28:00,71.2,66.8,30.03,NW,317,0.0,0.0,86,0.00,,,0.00,VWS V14.01,2013-08-28 11:28:00,
2013-08-28 07:43:00,71.5,67.1,30.04,NW,317,0.0,1.3,86,0.00,,,0.00,VWS V14.01,2013-08-28 11:43:00,
2013-08-28 07:58:00,72.4,67.6,30.03,NW,317,0.0,0.0,85,0.00,,,0.00,VWS V14.01,2013-08-28 11:58:00,
2013-08-28 08:13:00,73.3,68.5,30.03,NW,317,0.0,0.0,85,0.00,,,0.00,VWS V14.01,2013-08-28 12:13:00,
2013-08-28 08:28:00,74.3,69.5,30.04,NW,317,0.0,0.0,85,0.00,,,0.00,VWS V14.01,2013-08-28 12:28:00,
2013-08-28 08:43:00,75.5,69.6,30.04,NW,317,0.0,0.0,82,0.00,,,0.00,VWS V14.01,2013-08-28 12:43:00,
2013-08-28 08:58:00,77.0,70.7,30.04,NW,326,0.0,1.3,81,0.00,,,0.00,VWS V14.01,2013-08-28 12:58:00,
2013-08-28 09:13:00,78.4,71.0,30.03,NW,326,0.0,3.9,78,0.00,,,0.00,VWS V14.01,2013-08-28 13:13:00,
2013-08-28 09:28:00,79.4,72.3,30.03,North,5,0.0,1.3,79,0.00,,,0.00,VWS V14.01,2013-08-28 13:28:00,
2013-08-28 09:43:00,80.3,72.8,30.03,NW,321,0.0,0.0,78,0.00,,,0.00,VWS V14.01,2013-08-28 13:43:00,
2013-08-28 09:58:00,80.7,72.8,30.03,NW,321,0.0,0.0,77,0.00,,,0.00,VWS V14.01,2013-08-28 13:58:00,
2013-08-28 10:13:00,82.7,73.6,30.04,NE,42,1.3,2.6,74,0.00,,CLR,0.00,VWS V14.01,2013-08-28 14:13:00,
2013-08-28 10:28:00,83.6,73.6,30.03,WNW,297,3.9,6.5,72,0.00,,CLR,0.00,VWS V14.01,2013-08-28 14:28:00,
2013-08-28 10:43:00,84.0,74.0,30.04,NE,48,0.0,5.2,72,0.00,,CLR,0.00,VWS V14.01,2013-08-28 14:43:00,
2013-08-28 10:58:00,84.6,74.6,30.04,NNE,14,1.3,2.6,72,0.00,,CLR,0.00,VWS V14.01,2013-08-28 14:58:00,
2013-08-28 11:13:00,85.7,74.4,30.05,SW,230,1.3,5.2,69,0.00,,CLR,0.00,VWS V14.01,2013-08-28 15:13:00,
2013-08-28 11:28:00,87.0,75.2,30.05,NNW,338,2.6,3.9,68,0.00,,CLR,0.00,VWS V14.01,2013-08-28 15:28:00,
2013-08-28 11:43:00,87.7,75.8,30.04,WNW,294,2.6,6.5,68,0.00,,CLR,0.00,VWS V14.01,2013-08-28 15:43:00,
2013-08-28 11:58:00,87.6,74.4,30.04,North,360,1.3,3.9,65,0.00,,CLR,0.00,VWS V14.01,2013-08-28 15:58:00,
2013-08-28 12:13:00,89.4,73.7,30.04,East,79,1.3,5.2,60,0.00,,CLR,0.00,VWS V14.01,2013-08-28 16:13:00,
2013-08-28 12:28:00,89.3,73.1,30.04,ENE,77,2.6,3.9,59,0.00,,CLR,0.00,VWS V14.01,2013-08-28 16:28:00,
2013-08-28 12:43:00,89.9,72.6,30.04,North,355,0.0,2.6,57,0.00,,CLR,0.00,VWS V14.01,2013-08-28 16:43:00,
2013-08-28 12:58:00,90.0,75.2,30.04,NNE,13,0.0,3.9,62,0.00,,CLR,0.00,VWS V14.01,2013-08-28 16:58:00,
2013-08-28 13:13:00,89.4,74.7,30.04,WNW,292,1.3,3.9,62,0.00,,CLR,0.00,VWS V14.01,2013-08-28 17:13:00,
2013-08-28 13:28:00,87.8,74.1,30.03,West,273,1.3,3.9,64,0.00,,CLR,0.00,VWS V14.01,2013-08-28 17:28:00,
2013-08-28 13:43:00,87.8,74.6,30.03,West,267,0.0,1.3,65,0.00,,CLR,0.00,VWS V14.01,2013-08-28 17:43:00,
2013-08-28 13:58:00,90.0,74.3,30.03,West,271,3.9,3.9,60,0.00,,CLR,0.00,VWS V14.01,2013-08-28 17:58:00,
2013-08-28 14:13:00,87.8,71.2,30.02,SSE,159,0.0,2.6,58,0.00,,,0.00,VWS V14.01,2013-08-28 18:13:00,
2013-08-28 14:28:00,91.0,72.6,30.01,NW,315,2.6,3.9,55,0.00,,,0.00,VWS V14.01,2013-08-28 18:28:00,
2013-08-28 14:43:00,90.9,73.0,30.01,SSE,151,1.3,3.9,56,0.00,,,0.00,VWS V14.01,2013-08-28 18:43:00,
2013-08-28 14:58:00,88.9,73.7,30.00,SW,223,1.3,5.2,61,0.00,,,0.00,VWS V14.01,2013-08-28 18:58:00,
2013-08-28 15:13:00,90.9,74.6,30.00,SW,219,0.0,1.3,59,0.00,,SCT060,0.00,VWS V14.01,2013-08-28 19:13:00,
2013-08-28 15:28:00,91.5,76.2,29.99,SW,219,0.0,1.3,61,0.00,,SCT060,0.00,VWS V14.01,2013-08-28 19:28:00,
2013-08-28 15:43:00,89.8,76.0,29.99,SW,219,1.3,1.3,64,0.00,,SCT060,0.00,VWS V14.01,2013-08-28 19:43:00,
2013-08-28 15:58:00,88.2,75.4,29.99,WSW,251,3.9,3.9,66,0.00,,SCT060,0.00,VWS V14.01,2013-08-28 19:58:00,
2013-08-28 16:13:00,88.2,75.9,29.99,NW,322,2.6,2.6,67,0.00,,CLR,0.00,VWS V14.01,2013-08-28 20:13:00,
2013-08-28 16:28:00,88.6,74.4,29.98,SW,215,7.8,9.1,63,0.00,,CLR,0.00,VWS V14.01,2013-08-28 20:28:00,
2013-08-28 16:43:00,88.3,74.1,29.98,SW,218,0.0,9.1,63,0.00,,CLR,0.00,VWS V14.01,2013-08-28 20:43:00,
2013-08-28 16:58:00,88.3,75.1,29.97,WSW,252,3.9,5.2,65,0.00,,CLR,0.00,VWS V14.01,2013-08-28 20:58:00,
2013-08-28 17:13:00,88.8,75.1,29.97,SSW,204,0.0,3.9,64,0.00,,BKN055,0.00,VWS V14.01,2013-08-28 21:13:00,
2013-08-28 17:28:00,87.9,75.1,29.97,NNE,22,3.9,5.2,66,0.00,,BKN055,0.00,VWS V14.01,2013-08-28 21:28:00,
2013-08-28 17:43:00,87.7,74.0,29.97,WNW,297,1.3,10.4,64,0.00,,BKN055,0.00,VWS V14.01,2013-08-28 21:43:00,
2013-08-28 17:58:00,87.4,73.3,29.97,NNW,332,2.6,5.2,63,0.00,,BKN055,0.00,VWS V14.01,2013-08-28 21:58:00,
2013-08-28 18:13:00,87.6,73.5,29.97,NW,315,1.3,5.2,63,0.00,,CLR,0.00,VWS V14.01,2013-08-28 22:13:00,
2013-08-28 18:28:00,86.9,72.8,29.97,WSW,240,5.2,6.5,63,0.00,,CLR,0.00,VWS V14.01,2013-08-28 22:28:00,
2013-08-28 18:43:00,86.3,73.6,29.97,South,189,1.3,1.3,66,0.00,,CLR,0.00,VWS V14.01,2013-08-28 22:43:00,
2013-08-28 18:58:00,85.1,72.9,29.96,WSW,248,0.0,2.6,67,0.00,,CLR,0.00,VWS V14.01,2013-08-28 22:58:00,
2013-08-28 19:13:00,84.3,72.6,29.97,SW,225,0.0,2.6,68,0.00,,,0.00,VWS V14.01,2013-08-28 23:13:00,
2013-08-28 19:28:00,83.1,71.9,29.97,West,269,2.6,5.2,69,0.00,,,0.00,VWS V14.01,2013-08-28 23:28:00,
2013-08-28 19:43:00,82.5,72.2,29.97,SW,232,0.0,2.6,71,0.00,,,0.00,VWS V14.01,2013-08-28 23:43:00,
2013-08-28 19:58:00,81.7,71.8,29.98,SW,232,0.0,1.3,72,0.00,,,0.00,VWS V14.01,2013-08-28 23:58:00,
2013-08-28 20:13:00,81.3,72.6,29.98,SW,232,0.0,1.3,75,0.00,,,0.00,VWS V14.01,2013-08-29 00:13:00,
2013-08-28 20:28:00,80.2,72.3,29.98,SW,232,0.0,0.0,77,0.00,,,0.00,VWS V14.01,2013-08-29 00:28:00,
2013-08-28 20:43:00,79.1,71.7,29.98,SW,232,0.0,0.0,78,0.00,,,0.00,VWS V14.01,2013-08-29 00:43:00,
2013-08-28 20:58:00,78.0,71.3,29.98,SW,232,0.0,0.0,80,0.00,,,0.00,VWS V14.01,2013-08-29 00:58:00,
2013-08-28 21:13:00,77.0,70.7,29.98,SW,232,0.0,1.3,81,0.00,,FEW055,0.00,VWS V14.01,2013-08-29 01:13:00,
2013-08-28 21:28:00,76.5,70.6,29.98,SW,232,0.0,0.0,82,0.00,,FEW055,0.00,VWS V14.01,2013-08-29 01:28:00,
2013-08-28 21:43:00,77.4,70.8,29.98,SW,232,0.0,1.3,80,0.00,,FEW055,0.00,VWS V14.01,2013-08-29 01:43:00,
2013-08-28 21:58:00,78.5,71.4,29.99,SW,231,1.3,2.6,79,0.00,,FEW055,0.00,VWS V14.01,2013-08-29 01:58:00,
2013-08-28 22:13:00,79.5,71.7,29.99,South,187,3.9,6.5,77,0.00,,CLR,0.00,VWS V14.01,2013-08-29 02:13:00,
2013-08-28 22:28:00,80.3,71.7,29.99,SW,218,1.3,5.2,75,0.00,,CLR,0.00,VWS V14.01,2013-08-29 02:28:00,
2013-08-28 22:43:00,80.3,72.1,29.98,WSW,255,2.6,5.2,76,0.00,,CLR,0.00,VWS V14.01,2013-08-29 02:43:00,
2013-08-28 22:58:00,80.1,71.9,29.99,WSW,250,0.0,2.6,76,0.00,,CLR,0.00,VWS V14.01,2013-08-29 02:58:00,
2013-08-28 23:13:00,78.9,71.8,29.98,WSW,246,0.0,1.3,79,0.00,,CLR,0.00,VWS V14.01,2013-08-29 03:13:00,
2013-08-28 23:28:00,77.0,70.7,29.98,WSW,246,0.0,1.3,81,0.00,,CLR,0.00,VWS V14.01,2013-08-29 03:28:00,
2013-08-28 23:43:00,76.3,70.4,29.98,WSW,246,1.3,2.6,82,0.00,,CLR,0.00,VWS V14.01,2013-08-29 03:43:00,